TimeEDT,TemperatureF,Dew PointF,Humidity,Sea Level PressureIn,VisibilityMPH,Wind Direction,Wind SpeedMPH,Gust SpeedMPH,PrecipitationIn,Events,Conditions,WindDirDegrees,DateUTC
12:56 AM,71.1,68.0,90,29.96,10.0,Calm,Calm,-,N/A,,Mostly Cloudy,0,2013-10-17 04:56:00
1:31 AM,70.0,68.0,93,29.95,10.0,Calm,Calm,-,N/A,,Overcast,0,2013-10-17 05:31:00
1:56 AM,70.0,66.9,90,29.96,10.0,WNW,4.6,-,N/A,,Overcast,300,2013-10-17 05:56:00
2:33 AM,70.0,66.9,90,29.94,10.0,Calm,Calm,-,N/A,,Scattered Clouds,0,2013-10-17 06:33:00
2:47 AM,69.1,66.9,93,29.94,10.0,NW,3.5,-,N/A,,Mostly Cloudy,310,2013-10-17 06:47:00
2:56 AM,69.1,66.9,93,29.95,10.0,West,4.6,-,N/A,,Mostly Cloudy,260,2013-10-17 06:56:00
3:08 AM,69.1,68.0,96,29.94,9.0,WNW,4.6,-,N/A,,Overcast,300,2013-10-17 07:08:00
3:56 AM,69.1,66.9,93,29.94,8.0,NNW,5.8,-,N/A,,Scattered Clouds,330,2013-10-17 07:56:00
4:16 AM,68.0,66.9,96,29.93,9.0,NNW,4.6,-,N/A,,Partly Cloudy,340,2013-10-17 08:16:00
4:35 AM,68.0,66.9,96,29.93,10.0,NNW,3.5,-,N/A,,Mostly Cloudy,330,2013-10-17 08:35:00
4:42 AM,68.0,66.9,96,29.93,9.0,NNW,3.5,-,N/A,,Scattered Clouds,340,2013-10-17 08:42:00
4:56 AM,68.0,66.9,96,29.94,9.0,NW,3.5,-,N/A,,Partly Cloudy,320,2013-10-17 08:56:00
5:56 AM,66.9,66.0,97,29.95,5.0,Calm,Calm,-,N/A,,Clear,0,2013-10-17 09:56:00
6:56 AM,66.0,64.9,96,29.95,3.0,SW,3.5,-,N/A,,Clear,230,2013-10-17 10:56:00
7:12 AM,66.0,64.9,96,29.95,1.8,WSW,4.6,-,N/A,,Clear,250,2013-10-17 11:12:00
7:37 AM,66.0,64.9,96,29.95,3.0,WSW,4.6,-,N/A,,Clear,250,2013-10-17 11:37:00
7:56 AM,66.0,64.9,96,29.97,4.0,Calm,Calm,-,N/A,,Clear,0,2013-10-17 11:56:00
8:38 AM,69.1,66.9,93,29.97,8.0,West,3.5,-,N/A,,Partly Cloudy,270,2013-10-17 12:38:00
8:56 AM,70.0,66.9,90,29.98,8.0,Calm,Calm,-,N/A,,Partly Cloudy,0,2013-10-17 12:56:00
9:56 AM,72.0,66.0,81,29.99,10.0,West,3.5,-,N/A,,Clear,270,2013-10-17 13:56:00
10:56 AM,73.0,64.9,76,29.99,10.0,WNW,5.8,-,N/A,,Partly Cloudy,300,2013-10-17 14:56:00
11:56 AM,75.0,62.1,64,29.97,10.0,NW,8.1,-,N/A,,Clear,310,2013-10-17 15:56:00
1:56 PM,77.0,63.0,62,29.93,8.0,North,-9999.0,-,N/A,,Clear,0,2013-10-17 17:56:00
2:56 PM,75.9,64.9,69,29.91,10.0,East,6.9,-,N/A,,Partly Cloudy,90,2013-10-17 18:56:00
3:56 PM,75.9,64.9,69,29.90,10.0,ESE,6.9,-,N/A,,Partly Cloudy,110,2013-10-17 19:56:00
4:56 PM,77.0,64.9,66,29.90,10.0,SSW,9.2,-,N/A,,Partly Cloudy,210,2013-10-17 20:56:00
5:24 PM,77.0,64.0,64,29.88,10.0,SSW,11.5,-,N/A,,Partly Cloudy,200,2013-10-17 21:24:00
5:56 PM,75.0,64.0,69,29.89,10.0,SSW,11.5,-,N/A,,Clear,200,2013-10-17 21:56:00
6:56 PM,71.1,64.9,81,29.91,10.0,SSW,5.8,-,N/A,,Clear,200,2013-10-17 22:56:00
7:56 PM,70.0,66.0,87,29.92,10.0,SSW,6.9,-,N/A,,Clear,200,2013-10-17 23:56:00
8:56 PM,70.0,66.0,87,29.92,10.0,SSW,6.9,-,N/A,,Clear,200,2013-10-18 00:56:00
9:56 PM,70.0,66.9,90,29.92,10.0,SSW,8.1,-,N/A,,Clear,200,2013-10-18 01:56:00
10:56 PM,70.0,66.9,90,29.91,9.0,South,8.1,-,N/A,,Partly Cloudy,190,2013-10-18 02:56:00
11:56 PM,70.0,68.0,93,29.91,9.0,SSW,5.8,-,N/A,,Partly Cloudy,200,2013-10-18 03:56:00